Location: Budapest
(47.4979°N, 19.0402°E)
Time: 11:27:23
(UTC+02:00)

Envisat - Pass Details

Date: 12 October 2017
Orbit: 764 x 766 km, 98.2° (Epoch: 16 October)

Event Time Altitude Azimuth Distance (km) Brightness Sun altitude
Exits shadow 19:12:53 18° 97° (E) 1,806 4.3 -12.8°
Maximum altitude 19:15:05 24° 62° (ENE) 1,541 4.1 -13.2°
Drops below altitude 10° 19:19:07 10° 9° (N) 2,313 5.4 -13.9°
Sets 19:21:47 0° 357° (N) 3,244 6.3 -14.3°
